GW4477 Weather Reports


time (UTC)temp
C
wind
direction
speed
KPH
gust
KPH
rain 1hr
cm
rain 24hr
cm
rain mn
cm
humidity
%
barometer
mb
20260506043010 5 45 1.6 6.4 0.00 0.00 0.00 84 1017.1
20260506041516 5 109 1.6 11.3 0.00 0.00 0.00 83 1016.7
20260506040019 5 112 4.8 12.9 0.00 0.00 0.00 81 1016.3
20260506034503 5 131 6.4 14.5 0.00 0.00 0.00 78 1016.2
20260506033008 5 156 3.2 16.1 0.00 0.00 0.00 75 1016.3
20260506031514 5 98 6.4 19.3 0.00 0.00 0.00 74 1015.5
20260506030027 5 117 8.0 20.9 0.00 0.00 0.00 74 1015.4
20260506024536 6 82 3.2 16.1 0.00 0.00 0.00 74 1015.0
20260506023003 6 123 6.4 16.1 0.00 0.00 0.00 74 1014.7
20260506021509 6 111 4.8 17.7 0.00 0.00 0.00 72 1014.5
20260506020013 6 106 1.6 16.1 0.00 0.00 0.00 72 1014.5
20260506014521 6 123 3.2 11.3 0.00 0.00 0.00 72 1014.5
20260506013022 6 98 3.2 19.3 0.00 0.00 0.00 71 1014.5
20260506011508 6 113 1.6 16.1 0.00 0.00 0.00 71 1014.3
20260506010012 7 88 3.2 14.5 0.00 0.00 0.00 71 1014.3
20260506004518 7 49 4.8 17.7 0.00 0.00 0.00 70 1014.3
20260506003022 7 32 3.2 12.9 0.00 0.00 0.00 69 1014.3
20260506001532 7 12 4.8 11.3 0.00 0.00 0.00 69 1014.0
20260506000007 7 101 3.2 14.5 0.00 0.00 0.00 68 1014.2
20260505234503 8 360 4.8 17.7 0.00 0.00 0.00 66 1014.3
20260505233003 8 55 3.2 12.9 0.00 0.00 0.00 65 1014.2
20260505231505 8 26 4.8 14.5 0.00 0.00 0.00 64 1014.3
20260505230021 8 54 4.8 12.9 0.00 0.00 0.00 61 1014.3
20260505224528 9 74 3.2 12.9 0.00 0.00 0.00 60 1014.2
20260505223003 9 10 4.8 14.5 0.00 0.00 0.00 59 1013.9
20260505221504 10 131 4.8 12.9 0.00 0.00 0.00 57 1014.0
20260505220007 10 155 3.2 16.1 0.00 0.00 0.00 57 1013.7
20260505214511 10 198 3.2 12.9 0.00 0.00 0.00 56 1013.6
20260505213016 10 117 4.8 14.5 0.00 0.00 0.00 56 1013.6
20260505211504 10 318 4.8 14.5 0.00 0.00 0.00 55 1013.9
20260505210026 11 76 3.2 14.5 0.00 0.00 0.00 54 1014.0
20260505204511 11 45 4.8 19.3 0.00 0.00 0.00 53 1013.8
20260505203019 11 128 3.2 16.1 0.00 0.00 0.00 53 1013.9
20260505201518 11 9 8.0 19.3 0.00 0.00 0.00 52 1013.9
20260505200006 11 9 3.2 17.7 0.00 0.00 0.00 1014.1
20260505194508 12 126 4.8 14.5 0.00 0.00 0.00 51 1014.2
20260505193011 11 112 3.2 17.7 0.00 0.00 0.00 1014.2
20260505191523 12 78 4.8 16.1 0.00 0.00 0.00 51 1014.4
20260505190022 12 37 3.2 11.3 0.00 0.00 0.00 50 1014.3
20260505184508 12 108 4.8 14.5 0.00 0.00 0.00 50 1014.4
20260505183011 12 64 3.2 22.5 0.00 0.00 0.00 50 1014.5
20260505181517 12 349 4.8 20.9 0.00 0.00 0.00 49 1014.6
20260505180039 12 352 4.8 20.9 0.00 0.00 0.00 48 1014.5
20260505174522 13 27 4.8 19.3 0.00 0.00 0.00 47 1014.4
20260505173010 12 352 6.4 19.3 0.00 0.00 0.00 48 1014.6
20260505171516 12 52 8.0 19.3 0.00 0.00 0.00 49 1014.5
20260505170022 11 83 8.0 17.7 0.00 0.00 0.00 50 1014.9
20260505164526 11 131 6.4 19.3 0.00 0.00 0.00 49 1015.0
20260505163028 11 20 4.8 17.7 0.00 0.00 0.00 50 1014.7
20260505161514 11 117 6.4 24.1 0.00 0.00 0.00 50 1014.7
20260505153026 10 76 6.4 17.7 0.00 0.00 0.00 53 1014.8
20260505151526 10 25 6.4 17.7 0.00 0.00 0.00 53 1014.7
20260505124505 8 5 6.4 14.5 0.00 0.00 0.00 61 1013.1
20260505123012 8 82 6.4 16.1 0.00 0.00 0.00 61 1012.7
20260505121506 8 18 3.2 12.9 0.00 0.00 0.00 61 1012.1
20260505120019 8 117 6.4 17.7 0.00 0.00 0.00 60 1011.2
20260505114514 8 30 4.8 14.5 0.00 0.00 0.00 61 1011.1
20260505113004 8 360 3.2 14.5 0.00 0.00 0.00 60 1010.9
20260505111511 9 360 6.4 16.1 0.00 0.00 0.00 58 1010.6
20260505101514 10 13 3.2 16.1 0.00 0.00 0.00 57 1009.6
20260505100021 10 352 6.4 19.3 0.00 0.00 0.00 57 1009.6
20260505094512 10 24 11.3 22.5 0.00 0.00 0.00 56 1009.8
20260505093022 10 105 11.3 24.1 0.00 0.00 0.00 56 1009.5
20260505091521 10 21 8.0 22.5 0.00 0.00 0.00 56 1009.6
20260505090005 10 9 9.7 20.9 0.00 0.00 0.00 55 1009.6
20260505084508 10 42 9.7 17.7 0.00 0.00 0.00 55 1009.5
20260505083018 10 53 11.3 19.3 0.00 0.00 0.00 53 1009.0
20260505081522 10 17 9.7 25.7 0.00 0.00 0.00 53 1008.7
20260505080024 11 348 11.3 27.4 0.00 0.00 0.00 52 1008.1
20260505074509 11 24 12.9 25.7 0.00 0.00 0.00 50 1007.6
20260505073031 11 31 14.5 27.4 0.00 0.00 0.00 49 1007.3
20260505071518 12 67 9.7 29.0 0.00 0.00 0.00 49 1006.8
20260505070022 12 41 11.3 22.5 0.00 0.00 0.00 49 1006.8
20260505064524 13 341 9.7 24.1 0.00 0.00 0.00 50 1006.7
20260505063028 13 11 11.3 24.1 0.00 0.00 0.00 50 1006.4
20260505061523 13 17 12.9 20.9 0.00 0.00 0.00 50 1006.4
20260505060023 14 91 9.7 25.7 0.00 0.00 0.00 51 1006.3
20260505054506 14 57 8.0 30.6 0.00 0.00 0.00 52 1006.2
20260505053014 15 74 8.0 19.3 0.00 0.00 0.00 54 1005.9
20260505051533 15 10 8.0 20.9 0.00 0.00 0.00 56 1006.0